sat.trackr.live / text

‹ back to catalog

ZORKIY-2M-5

NORAD 67295 · 2025-313AZ

PAYLOAD ACTIVE UNKNOWN

§ Identity

Operator
Country
CIS
Launch date
2025-12-28
Launch site
VOSTO
Launch vehicle
Mass (kg)
RCS (m²)

External: N2YO · Heavens-Above · Gunter

§ Orbital elements

Epoch: 2026-05-25T03:30:36.128736Z

Period
94.50 min
Inclination
97.3944°
Eccentricity
0.0011801
Mean motion
15.23797774 rev/d
Perigee alt
486.3 km
Apogee alt
502.5 km
Semi-major
6,872.5 km
B*
3.0943e-4
RAAN
220.4268°
Arg perigee
72.6114°
Mean anomaly
287.6412°
Rev number
2,246

§ Raw data

ZORKIY-2M-51 67295U 25313AZ  26145.14625149  .00007394  00000+0  30943-3 0  99972 67295  97.3944 220.4268 0011801  72.6114 287.6412 15.23797774 22469

JSON: /api/v1/satellites/67295 · /tle

For live sub-satellite position, see the globe view (requires WebGL).

§ Visibility from observer

Set your observer location to see the next 7 days of passes ≥ 10°. The values pass through the URL so the page stays shareable.

No JS? Fill the form by hand. The geolocation button needs JavaScript.